Regional Weather Roundup
Issued by NWS

Home | Current Version | Previous Version | Text Only | Print | Product List | Glossary On
Versions: 1 2 3 4 5 6 7 8 9 10 11 12 13 14 15 16 17 18 19 20 21 22 23 24 25 26 27 28 29 30 31 32 33 34 35 36 37 38 39 40 41 42 43 44 45 46 47 48 49 50
849
ASUS43 KDMX 281306
RWRIA

WEATHER ROUNDUP FOR IOWA
NATIONAL WEATHER SERVICE DES MOINES IA
800 AM CDT WED JUN 28 2017

NOTE: "FAIR" INDICATES FEW OR NO CLOUDS BELOW 12,000 FEET WITH NO
SIGNIFICANT WEATHER AND/OR OBSTRUCTIONS TO VISIBILITY.

* - THESE STATIONS ARE NOT NWS STATIONS...THUS NOT UNDER NWS
QUALITY CONTROL.  THEY ALSO DO NOT REPORT WEATHER SUCH
AS PRECIPITATION OR FOG.

IAZ001>003-012>014-020>022-031>034-043>046-281400-
   NORTHWEST IOWA

CITY           SKY/WX    TMP DP  RH WIND       PRES   REMARKS
CARROLL *      CLOUDY    68  64  88 S12G18    29.70F
CHEROKEE *     CLOUDY    66  66  97 S7        29.68F
DENISON *      CLOUDY    68  64  88 S8        29.72R
LE MARS *      PTSUNNY   68  64  88 S9G16     29.66F
ORANGE CITY *  CLOUDY    66  64  94 SW13      29.67S
SHELDON *      CLOUDY    66  63  88 S20G26    29.64F
SIOUX CITY     CLOUDY    70  64  81 SW9       29.68F
SPENCER        CLOUDY    67  63  87 S14       29.67R
STORM LAKE *   MOSUNNY   68  63  83 S12       29.69F
$$

IAZ055>058-069>071-079>083-090>094-281400-
   SOUTHWEST IOWA

CITY           SKY/WX    TMP DP  RH WIND       PRES   REMARKS
ATLANTIC *     CLOUDY    66  63  88 S10       29.75R
AUDUBON *      PTSUNNY   66  63  88 S9        29.73F
CLARINDA *     CLOUDY    68  64  88 S10       29.81R
COUNCIL BLFS * CLOUDY    68  66  94 S16G25    29.75R
CRESTON *      PTSUNNY   66  63  88 S9G17     29.76F
HARLAN  *      CLOUDY    66  64  94 S13       29.76R
LAMONI         LGT RAIN  65  63  93 SE9       29.83F
RED OAK *      CLOUDY    66  64  94 S9        29.77R
SHENANDOAH *   CLOUDY    68  64  88 S8        29.79R
$$

IAZ047>049-059>061-072>074-084-281400-
   CENTRAL IOWA

CITY           SKY/WX    TMP DP  RH WIND       PRES   REMARKS
AMES           CLOUDY    67  66  97 S15       29.70R
ANKENY *       CLOUDY    68  63  83 SW10      29.73F
BOONE *        CLOUDY    66  63  88 SW12G18   29.70F
CHARITON *     LGT RAIN  68  61  77 S20G26    29.82F
DES MOINES     CLOUDY    70  61  73 S14       29.73F
GRINNELL*      LGT RAIN  70  58  64 S21G40    29.73F
KNOXVILLE *    LGT RAIN  68  61  77 S24G31    29.70F
MARSHALLTOWN   LGT RAIN  68  64  87 S16       29.70F
NEWTON *       CLOUDY    70  57  64 S20G31    29.70F
PELLA *        RAIN      67  62  84 S10G17    29.74F
PERRY *          N/A     67  65  96 S15       29.72F
$$

IAZ004>006-015-016-023>025-035-036-281400-
   NORTH CENTRAL IOWA

CITY           SKY/WX    TMP DP  RH WIND       PRES   REMARKS
ALGONA *       CLOUDY    66  66 100 SW15G21   29.68R
CLARION *        N/A     68  68 100 SW14      29.70R
ESTHERVILLE    CLOUDY    66  64  93 S14       29.65S
FORT DODGE *   CLOUDY    66  61  82 SW15G23   29.71S
MASON CITY     CLOUDY    68  63  84 SW12      29.71R
FOREST CITY *  PTSUNNY   68  61  77 SW10      29.68S
WEBSTER CITY * CLOUDY    68  63  83 SW17G29   29.68F
IOWA FALLS *     N/A     71  61  71 SW20G35   29.72R
$$

IAZ007>011-017>019-026>030-037>042-050>054-066-281400-
   NORTHEAST IOWA

CITY           SKY/WX    TMP DP  RH WIND       PRES   REMARKS
CEDAR RAPIDS   CLOUDY    65  65 100 SE13G20   29.83F
CHARLES CITY * LGT RAIN  64  64 100 SE15      29.74R
CLINTON *      HVY RAIN  63  61  94 S15       29.95R
DECORAH *      CLOUDY    63  63 100 SE14G24   29.76F
DUBUQUE        LGT RAIN  62  61  96 S8        29.91S
MONTICELLO *   LGT RAIN  66  64  94 SE15      29.87F
OELWEIN *      CLOUDY    66  64  94 SE20G26   29.78F
WATERLOO       CLOUDY    66  62  87 SE20G30   29.68F
$$

IAZ064-065-067-068-078-281400-
   EAST CENTRAL IOWA

CITY           SKY/WX    TMP DP  RH WIND       PRES   REMARKS
IOWA CITY      CLOUDY    66  64  93 SE10      29.88S
MT. PLEASANT * CLOUDY    68  63  83 SW14      29.89S
MUSCATINE *    LGT RAIN  66  64  94 VRB3      29.90F
QUAD CITIES    TSTM      64  61  90 CALM      29.93R FOG
$$

IAZ062-063-075>077-085>089-095>099-281400-
   SOUTHEAST IOWA

CITY           SKY/WX    TMP DP  RH WIND       PRES   REMARKS
BURLINGTON     TSTM      69  64  84 S20G26    29.91R
FAIRFIELD *    CLOUDY    72  63  73 S15G21    29.86S
FORT MADISON * CLOUDY    70  64  83 S12       29.92R
KEOKUK *       CLOUDY    72  64  78 S12       29.91R
OSKALOOSA *      N/A     71  65  81 SW12G17   29.81F
CENTERVILLE *  PTSUNNY   70  64  83 S18       29.87F
OTTUMWA        CLOUDY    72  65  78 SW13      29.83F
WASHINGTON *   CLOUDY    68  66  94 S8        29.87F
$$

ABBREVIATIONS USED IN REMARKS
   TC - TEMPERATURES IN CELSIUS
  WCI - WIND CHILL INDEX
   HX - HEAT INDEX
  VSB - VISIBILITY
$$





USA.gov is the U.S. government's official web portal to all federal, state and local government web resources and services.